SILO ALERT LOG
| Silo ID | Alert Type | Alert Message | Silo Type | Points | Depth (mm) | Strength | Temperature (°C) | Humidity (%) | Height (mm) | Volume (㎥) | Weight (t) | Flag | Time |
|---|---|---|---|---|---|---|---|---|---|---|---|---|---|
| DJSAD01 | Humidity | 습도센서 측정값이 80% 초과 | 평 | 440 | 1504 | 7440 | 3.3 | 83.8 | 7275 | 301.178 | 190.405 | 0 | 2024-01-12 18:39:40.000 |
| DJSAD02 | Humidity | 습도센서 측정값이 80% 초과 | 평 | 379 | 1137 | 4354 | 3.7 | 84.5 | 7642 | 316.385 | 200.019 | 11 | 2024-01-12 18:39:39.000 |
| DJSAD03 | Humidity | 습도센서 측정값이 80% 초과 | 평 | 443 | 1657 | 6211 | 6.1 | 84.5 | 7122 | 294.859 | 186.41 | 0 | 2024-01-12 18:39:39.000 |
| DJSSD05 | Temperature | 온도센서 측정값이 0도 미만 | 평 | 840 | 2546 | 4878 | -45.4 | 43.7 | 5533 | 770.19 | 486.914 | 0 | 2024-01-12 18:39:33.000 |
| DJSSD09 | Temperature | 온도센서 측정값이 0도 미만 | 평 | 114 | 3089 | 2650 | -45.4 | 0 | 4590 | 638.854 | 403.883 | 11 | 2024-01-12 18:39:33.000 |
| DJSSD04 | Temperature | 온도센서 상태 이상 | 평 | 0 | 8200 | 0 | -999 | -999 | -120 | -16.702 | 0 | 31 | 2024-01-12 18:39:33.000 |
| DJHNR01 | Humidity | 습도센서 측정값이 80% 초과 | 호퍼 | 471 | 4315 | 4900 | 8.1 | 97.1 | 11064 | 472.262 | 298.564 | 13 | 2024-01-12 18:39:33.000 |
| DJSAD08 | Humidity | 습도센서 측정값이 80% 초과 | 평 | 568 | 2357 | 4812 | 10.2 | 82.6 | 5222 | 743.141 | 469.814 | 12 | 2024-01-12 18:39:32.000 |
| DJSAD07 | Humidity | 습도센서 측정값이 80% 초과 | 평 | 271 | 2425 | 3396 | 4 | 85.5 | 5154 | 733.373 | 463.639 | 11 | 2024-01-12 18:39:31.000 |
| DJSAD17 | Humidity | 습도센서 측정값이 80% 초과 | 평 | 443 | 3117 | 4684 | 6.6 | 81.4 | 4462 | 444.334 | 280.908 | 0 | 2024-01-12 18:39:31.000 |
| DJSAD18 | Humidity | 습도센서 측정값이 80% 초과 | 평 | 120 | 1412 | 5872 | 7.5 | 80.8 | 6167 | 614.128 | 388.252 | 11 | 2024-01-12 18:39:31.000 |
| DJHNR03 | Temperature | 온도센서 상태 이상 | 호퍼 | 0 | 15500 | 0 | -999 | -999 | -119 | 0 | 0 | 31 | 2024-01-12 18:39:24.000 |
| DJSSD12 | Temperature | 온도센서 상태 이상 | 호퍼 | 0 | 11350 | 0 | -999 | -999 | -120 | 0 | 0 | 31 | 2024-01-12 18:39:24.000 |
| DJSAD03 | Humidity | 습도센서 측정값이 80% 초과 | 평 | 435 | 1779 | 6166 | 7.3 | 84.5 | 7000 | 289.795 | 183.209 | 0 | 2024-01-12 17:39:40.000 |
| DJSAD02 | Humidity | 습도센서 측정값이 80% 초과 | 평 | 379 | 1133 | 4365 | 4.1 | 84.1 | 7646 | 316.55 | 200.123 | 11 | 2024-01-12 17:39:39.000 |
| DJSAD01 | Humidity | 습도센서 측정값이 80% 초과 | 평 | 446 | 1510 | 7519 | 4.2 | 83.1 | 7269 | 300.913 | 190.237 | 0 | 2024-01-12 17:39:39.000 |
| DJSAD12 | Humidity | 습도센서 측정값이 80% 초과 | 평 | 0 | 7700 | 0 | 5.4 | 82.2 | -120 | -17.075 | 0 | 31 | 2024-01-12 17:39:33.000 |
| DJSSD04 | Temperature | 온도센서 상태 이상 | 평 | 0 | 8200 | 0 | -999 | -999 | -120 | -16.702 | 0 | 31 | 2024-01-12 17:39:33.000 |
| DJSSD05 | Temperature | 온도센서 측정값이 0도 미만 | 평 | 844 | 2547 | 4885 | -45.4 | 43.7 | 5532 | 769.994 | 486.79 | 0 | 2024-01-12 17:39:32.000 |
| DJHNR01 | Humidity | 습도센서 측정값이 80% 초과 | 호퍼 | 471 | 4315 | 4861 | 8.8 | 95.7 | 11064 | 472.262 | 298.564 | 13 | 2024-01-12 17:39:32.000 |
[첫 페이지] [9978] [9979] [9980] [9981] 9982 [9983] [9984] [9985] [9986] [마지막 페이지]